,,Stat6,,Stat2,,Stat8,,Stat9,,Stat10,,Wind1,,Wind1,
time,status,PA1M_AVG,status,PR1M_SUM,status,RH1M_AVG,status,SR1M_AVG,status,TA1M_AVG,status,W1dAve1m,status,W1sAve1m,
2006-01-14, 00:00:00,VALID,917.158,VALID,0,VALID,100,VALID,0.118866,VALID,19.631,VALID,140,VALID,1.17578,
2006-01-14, 00:01:00,VALID,917.16,VALID,0,VALID,100,VALID,0.135847,VALID,19.644,VALID,140,VALID,1.49386,
2006-01-14, 00:02:00,VALID,917.18,VALID,0,VALID,100,VALID,0.135847,VALID,19.6475,VALID,137,VALID,1.37623,
2006-01-14, 00:03:00,VALID,917.183,VALID,0,VALID,100,VALID,0.118866,VALID,19.6574,VALID,135,VALID,1.39063,
2006-01-14, 00:04:00,VALID,917.222,VALID,0,VALID,100,VALID,0.118866,VALID,19.6601,VALID,141,VALID,1.20238,
2006-01-14, 00:05:00,VALID,917.216,VALID,0,VALID,100,VALID,0.101885,VALID,19.6539,VALID,146,VALID,0.993164,
2006-01-14, 00:06:00,VALID,917.225,VALID,0,VALID,100,VALID,0.118866,VALID,19.6572,VALID,135,VALID,0.916211,
2006-01-14, 00:07:00,VALID,917.23,VALID,0,VALID,100,VALID,0.152827,VALID,19.6574,VALID,137,VALID,0.786014,
2006-01-14, 00:08:00,VALID,917.246,VALID,0,VALID,100,VALID,0.0849042,VALID,19.6412,VALID,138,VALID,1.02227,
2006-01-14, 00:09:00,VALID,917.244,VALID,0,VALID,100,VALID,0.101885,VALID,19.641,VALID,148,VALID,1.01527,
2006-01-14, 00:10:00,VALID,917.243,VALID,0,VALID,100,VALID,0.152827,VALID,19.6415,VALID,151,VALID,0.885099,
2006-01-14, 00:11:00,VALID,917.251,VALID,0,VALID,100,VALID,0.118866,VALID,19.6283,VALID,135,VALID,1.04833,
2006-01-14, 00:12:00,VALID,917.254,VALID,0,VALID,100,VALID,0.101885,VALID,19.6054,VALID,136,VALID,1.1452,
2006-01-14, 00:13:00,VALID,917.263,VALID,0,VALID,100,VALID,0.0679233,VALID,19.6116,VALID,135,VALID,1.25677,
2006-01-14, 00:14:00,VALID,917.268,VALID,0,VALID,100,VALID,0.0849042,VALID,19.6054,VALID,136,VALID,1.24368,
2006-01-14, 00:15:00,VALID,917.264,VALID,0,VALID,100,VALID,0.0849042,VALID,19.6156,VALID,129,VALID,1.08958,
2006-01-14, 00:16:00,VALID,917.268,VALID,0,VALID,100,VALID,0.101885,VALID,19.6022,VALID,120,VALID,1.12031,
2006-01-14, 00:17:00,VALID,917.267,VALID,0,VALID,100,VALID,0.118866,VALID,19.586,VALID,128,VALID,0.814174,
2006-01-14, 00:18:00,VALID,917.256,VALID,0,VALID,100,VALID,0.101885,VALID,19.5699,VALID,125,VALID,1.0258,
2006-01-14, 00:19:00,VALID,917.242,VALID,0,VALID,100,VALID,0.135847,VALID,19.5696,VALID,132,VALID,0.817835,
2006-01-14, 00:20:00,VALID,917.223,VALID,0,VALID,100,VALID,0.135847,VALID,19.5666,VALID,133,VALID,1.45058,
2006-01-14, 00:21:00,VALID,917.206,VALID,0,VALID,100,VALID,0.135847,VALID,19.5664,VALID,133,VALID,1.05393,
2006-01-14, 00:22:00,VALID,917.2,VALID,0,VALID,100,VALID,0.152827,VALID,19.5699,VALID,137,VALID,0.819111,
2006-01-14, 00:23:00,VALID,917.181,VALID,0,VALID,100,VALID,0.118866,VALID,19.5669,VALID,134,VALID,0.43657,
2006-01-14, 00:24:00,VALID,917.187,VALID,0,VALID,100,VALID,0.152827,VALID,19.5497,VALID,133,VALID,0.685082,
2006-01-14, 00:25:00,VALID,917.193,VALID,0,VALID,100,VALID,0.118866,VALID,19.5636,VALID,132,VALID,1.06659,
2006-01-14, 00:26:00,VALID,917.211,VALID,0,VALID,100,VALID,0.169808,VALID,19.5666,VALID,97,VALID,0.375558,
2006-01-14, 00:27:00,VALID,917.214,VALID,0,VALID,100,VALID,0.118866,VALID,19.5604,VALID,90,VALID,0.107515,
2006-01-14, 00:28:00,VALID,917.235,VALID,0,VALID,100,VALID,0.101885,VALID,19.5343,VALID,121,VALID,0.430556,
2006-01-14, 00:29:00,VALID,917.227,VALID,0,VALID,100,VALID,0.101885,VALID,19.5241,VALID,176,VALID,0.434126,
2006-01-14, 00:30:00,VALID,917.242,VALID,0,VALID,100,VALID,0.118866,VALID,19.5281,VALID,165,VALID,0.969815,
2006-01-14, 00:31:00,VALID,917.242,VALID,0,VALID,100,VALID,0.169808,VALID,19.5243,VALID,167,VALID,1.12556,
2006-01-14, 00:32:00,VALID,917.228,VALID,0,VALID,100,VALID,0.135847,VALID,19.5146,VALID,162,VALID,0.627544,
2006-01-14, 00:33:00,VALID,917.228,VALID,0,VALID,100,VALID,0.101885,VALID,19.4923,VALID,165,VALID,0.470508,
2006-01-14, 00:34:00,VALID,917.203,VALID,0,VALID,100,VALID,0.101885,VALID,19.4895,VALID,166,VALID,0.388021,
2006-01-14, 00:35:00,VALID,917.215,VALID,0,VALID,100,VALID,0.135847,VALID,19.4699,VALID,147,VALID,0.823509,
2006-01-14, 00:36:00,VALID,917.206,VALID,0,VALID,100,VALID,0.186789,VALID,19.4492,VALID,151,VALID,0.744727,
2006-01-14, 00:37:00,VALID,917.223,VALID,0,VALID,100,VALID,0.186789,VALID,19.4393,VALID,152,VALID,0.585193,
2006-01-14, 00:38:00,VALID,917.231,VALID,0,VALID,100,VALID,0.20377,VALID,19.4266,VALID,141,VALID,0.315848,
2006-01-14, 00:39:00,VALID,917.218,VALID,0,VALID,100,VALID,0.152827,VALID,19.4067,VALID,122,VALID,0.41915,
2006-01-14, 00:40:00,VALID,917.218,VALID,0,VALID,100,VALID,0.186789,VALID,19.4008,VALID,130,VALID,0.682231,
2006-01-14, 00:41:00,VALID,917.209,VALID,0,VALID,100,VALID,0.169808,VALID,19.3978,VALID,139,VALID,0.780664,
2006-01-14, 00:42:00,VALID,917.201,VALID,0,VALID,100,VALID,0.169808,VALID,19.3938,VALID,141,VALID,0.657012,
2006-01-14, 00:43:00,VALID,917.191,VALID,0,VALID,100,VALID,0.186789,VALID,19.3998,VALID,140,VALID,0.452762,
2006-01-14, 00:44:00,VALID,917.195,VALID,0,VALID,100,VALID,0.186789,VALID,19.397,VALID,127,VALID,0.546165,
2006-01-14, 00:45:00,VALID,917.213,VALID,0,VALID,100,VALID,0.169808,VALID,19.3913,VALID,113,VALID,0.690952,
2006-01-14, 00:46:00,VALID,917.229,VALID,0,VALID,100,VALID,0.118866,VALID,19.3876,VALID,121,VALID,0.673399,
2006-01-14, 00:47:00,VALID,917.24,VALID,0,VALID,100,VALID,0.152827,VALID,19.4008,VALID,149,VALID,0.770433,
2006-01-14, 00:48:00,VALID,917.239,VALID,0,VALID,100,VALID,0.135847,VALID,19.4167,VALID,136,VALID,0.509301,
2006-01-14, 00:49:00,VALID,917.253,VALID,0,VALID,100,VALID,0.169808,VALID,19.453,VALID,135,VALID,1.14299,
2006-01-14, 00:50:00,VALID,917.244,VALID,0,VALID,100,VALID,0.135847,VALID,19.4756,VALID,127,VALID,0.666797,
2006-01-14, 00:51:00,VALID,917.23,VALID,0,VALID,100,VALID,0.0339617,VALID,19.5097,VALID,118,VALID,0.655859,
2006-01-14, 00:52:00,VALID,917.208,VALID,0,VALID,100,VALID,0.0169808,VALID,19.5181,VALID,131,VALID,0.517078,
2006-01-14, 00:53:00,VALID,917.197,VALID,0,VALID,100,VALID,0.0169808,VALID,19.5283,VALID,122,VALID,0.173363,
2006-01-14, 00:54:00,VALID,917.178,VALID,0,VALID,100,VALID,0.0169808,VALID,19.5256,VALID,115,VALID,0.492551,
2006-01-14, 00:55:00,VALID,917.162,VALID,0,VALID,100,VALID,0.0339617,VALID,19.5218,VALID,131,VALID,0.493608,
2006-01-14, 00:56:00,VALID,917.152,VALID,0,VALID,100,VALID,0.0339617,VALID,19.5348,VALID,136,VALID,0.346037,
2006-01-14, 00:57:00,VALID,917.156,VALID,0,VALID,100,VALID,0.0509425,VALID,19.5345,VALID,136,VALID,0.198946,
2006-01-14, 00:58:00,VALID,917.148,VALID,0,VALID,100,VALID,0.0509425,VALID,19.5286,VALID,136,VALID,0.423735,
2006-01-14, 00:59:00,VALID,917.157,VALID,0,VALID,100,VALID,0.0509425,VALID,19.5246,VALID,136,VALID,0.152435,
2006-01-14, 01:00:00,VALID,917.152,VALID,0,VALID,100,VALID,0.0509425,VALID,19.5315,VALID,136,VALID,0.202567,
2006-01-14, 01:01:00,VALID,917.161,VALID,0,VALID,100,VALID,0.0509425,VALID,19.5315,VALID,136,VALID,0.0483285,
2006-01-14, 01:02:00,VALID,917.164,VALID,0,VALID,100,VALID,0.0339617,VALID,19.5286,VALID,138,VALID,0.319222,
2006-01-14, 01:03:00,VALID,917.16,VALID,0,VALID,100,VALID,0.0169808,VALID,19.5353,VALID,141,VALID,0.574468,
2006-01-14, 01:04:00,VALID,917.159,VALID,0,VALID,100,VALID,0.0169808,VALID,19.535,VALID,142,VALID,0.227951,
2006-01-14, 01:05:00,VALID,917.145,VALID,0,VALID,100,VALID,0.0169808,VALID,19.5412,VALID,139,VALID,0.200391,
2006-01-14, 01:06:00,VALID,917.135,VALID,0,VALID,100,VALID,0.0169808,VALID,19.5154,VALID,136,VALID,0.300967,
2006-01-14, 01:07:00,VALID,917.116,VALID,0,VALID,100,VALID,0.0339617,VALID,19.5119,VALID,131,VALID,0.543899,
2006-01-14, 01:08:00,VALID,917.092,VALID,0,VALID,100,VALID,0.0339617,VALID,19.5477,VALID,122,VALID,0.394159,
2006-01-14, 01:09:00,VALID,917.088,VALID,0,VALID,100,VALID,0.0169808,VALID,19.5544,VALID,122,VALID,0.457961,
2006-01-14, 01:10:00,VALID,917.075,VALID,0,VALID,100,VALID,0.0339617,VALID,19.5412,VALID,135,VALID,0.819568,
2006-01-14, 01:11:00,VALID,917.067,VALID,0,VALID,100,VALID,0.0169808,VALID,19.5544,VALID,142,VALID,0.685023,
2006-01-14, 01:12:00,VALID,917.058,VALID,0,VALID,100,VALID,0.0169808,VALID,19.5639,VALID,145,VALID,0.651758,
2006-01-14, 01:13:00,VALID,917.054,VALID,0,VALID,100,VALID,0.0339617,VALID,19.5863,VALID,145,VALID,0.654433,
2006-01-14, 01:14:00,VALID,917.039,VALID,0,VALID,100,VALID,0.0339617,VALID,19.6191,VALID,145,VALID,0.567827,
2006-01-14, 01:15:00,VALID,917.019,VALID,0,VALID,100,VALID,0.0169808,VALID,19.6512,VALID,145,VALID,0.617746,
2006-01-14, 01:16:00,VALID,916.996,VALID,0,VALID,100,VALID,0.0169808,VALID,19.6507,VALID,145,VALID,0.542436,
2006-01-14, 01:17:00,VALID,916.965,VALID,0,VALID,100,VALID,0.0509425,VALID,19.6579,VALID,145,VALID,0.429476,
2006-01-14, 01:18:00,VALID,916.96,VALID,0,VALID,100,VALID,0.0509425,VALID,19.6514,VALID,145,VALID,0.656836,
2006-01-14, 01:19:00,VALID,916.95,VALID,0,VALID,100,VALID,0.0509425,VALID,19.645,VALID,145,VALID,0.324963,
2006-01-14, 01:20:00,VALID,916.954,VALID,0,VALID,100,VALID,0.0339617,VALID,19.6315,VALID,145,VALID,0.455793,
2006-01-14, 01:21:00,VALID,916.956,VALID,0,VALID,100,VALID,0.101885,VALID,19.6338,VALID,143,VALID,0.414971,
2006-01-14, 01:22:00,VALID,916.946,VALID,0,VALID,100,VALID,0.118866,VALID,19.6241,VALID,138,VALID,0.0864826,
2006-01-14, 01:23:00,VALID,916.943,VALID,0,VALID,99.9308,VALID,0.118866,VALID,19.6114,VALID,138,VALID,0.0682664,
2006-01-14, 01:24:00,VALID,916.954,VALID,0,VALID,99.484,VALID,0.101885,VALID,19.5209,VALID,138,VALID,0.364211,
2006-01-14, 01:25:00,VALID,916.966,VALID,0,VALID,99.4802,VALID,0.118866,VALID,19.4557,VALID,107,VALID,0.648996,
2006-01-14, 01:26:00,VALID,916.951,VALID,0,VALID,99.9296,VALID,0.135847,VALID,19.4328,VALID,83,VALID,0.864139,
2006-01-14, 01:27:00,VALID,916.961,VALID,0,VALID,99.9891,VALID,0.118866,VALID,19.4201,VALID,69,VALID,0.858186,
2006-01-14, 01:28:00,VALID,916.959,VALID,0,VALID,100,VALID,0.169808,VALID,19.3945,VALID,74,VALID,0.62064,
2006-01-14, 01:29:00,VALID,916.961,VALID,0,VALID,99.9964,VALID,0.135847,VALID,19.3624,VALID,74,VALID,0.549851,
2006-01-14, 01:30:00,VALID,916.966,VALID,0,VALID,99.9916,VALID,0.118866,VALID,19.307,VALID,74,VALID,0.375347,
2006-01-14, 01:31:00,VALID,916.971,VALID,0,VALID,100,VALID,0.118866,VALID,19.2684,VALID,74,VALID,0.212126,
2006-01-14, 01:32:00,VALID,916.949,VALID,0,VALID,100,VALID,0.0679233,VALID,19.2558,VALID,74,VALID,0.0408203,
2006-01-14, 01:33:00,VALID,916.946,VALID,0,VALID,100,VALID,0.0849042,VALID,19.2428,VALID,74,VALID,0.0809152,
2006-01-14, 01:34:00,VALID,916.932,VALID,0,VALID,100,VALID,0.101885,VALID,19.2396,VALID,74,VALID,0,
2006-01-14, 01:35:00,VALID,916.92,VALID,0,VALID,100,VALID,0.118866,VALID,19.2202,VALID,74,VALID,0.00130208,
2006-01-14, 01:36:00,VALID,916.894,VALID,0,VALID,100,VALID,0.101885,VALID,19.2172,VALID,74,VALID,0.0399709,
2006-01-14, 01:37:00,VALID,916.895,VALID,0,VALID,100,VALID,0.135847,VALID,19.2035,VALID,77,VALID,0.297247,
2006-01-14, 01:38:00,VALID,916.883,VALID,0,VALID,100,VALID,0.101885,VALID,19.2001,VALID,133,VALID,0.921875,
2006-01-14, 01:39:00,VALID,916.875,VALID,0,VALID,100,VALID,0.101885,VALID,19.2329,VALID,124,VALID,0.847842,
2006-01-14, 01:40:00,VALID,916.89,VALID,0,VALID,100,VALID,0.118866,VALID,19.2498,VALID,134,VALID,0.759718,
2006-01-14, 01:41:00,VALID,916.894,VALID,0,VALID,100,VALID,0.118866,VALID,19.2558,VALID,130,VALID,0.175223,
2006-01-14, 01:42:00,VALID,916.903,VALID,0,VALID,100,VALID,0.118866,VALID,19.2431,VALID,124,VALID,0.456745,
2006-01-14, 01:43:00,VALID,916.917,VALID,0,VALID,100,VALID,0.135847,VALID,19.2361,VALID,137,VALID,0.343564,
2006-01-14, 01:44:00,VALID,916.927,VALID,0,VALID,100,VALID,0.152827,VALID,19.2359,VALID,141,VALID,0.205171,
2006-01-14, 01:45:00,VALID,916.926,VALID,0,VALID,100,VALID,0.186789,VALID,19.2334,VALID,124,VALID,0.326791,
2006-01-14, 01:46:00,VALID,916.935,VALID,0,VALID,100,VALID,0.152827,VALID,19.2433,VALID,119,VALID,0.254076,
2006-01-14, 01:47:00,VALID,916.951,VALID,0,VALID,100,VALID,0.135847,VALID,19.2297,VALID,119,VALID,0.383194,
2006-01-14, 01:48:00,VALID,916.948,VALID,0,VALID,100,VALID,0.169808,VALID,19.2331,VALID,119,VALID,0.221484,
2006-01-14, 01:49:00,VALID,916.936,VALID,0,VALID,100,VALID,0.20377,VALID,19.2446,VALID,101,VALID,0.537704,
2006-01-14, 01:50:00,VALID,916.946,VALID,0,VALID,100,VALID,0.135847,VALID,19.2396,VALID,99,VALID,0.334635,
2006-01-14, 01:51:00,VALID,916.947,VALID,0,VALID,100,VALID,0.0339617,VALID,19.2433,VALID,128,VALID,0.485973,
2006-01-14, 01:52:00,VALID,916.935,VALID,0,VALID,100,VALID,0.0679233,VALID,19.2637,VALID,136,VALID,0.53559,
2006-01-14, 01:53:00,VALID,916.939,VALID,0,VALID,100,VALID,0.0509425,VALID,19.2761,VALID,127,VALID,0.748285,
2006-01-14, 01:54:00,VALID,916.931,VALID,0,VALID,100,VALID,0.0679233,VALID,19.2958,VALID,135,VALID,0.592076,
2006-01-14, 01:55:00,VALID,916.926,VALID,0,VALID,100,VALID,0.0679233,VALID,19.299,VALID,134,VALID,0.302379,
2006-01-14, 01:56:00,VALID,916.915,VALID,0,VALID,100,VALID,0.0509425,VALID,19.3122,VALID,135,VALID,0.285689,
2006-01-14, 01:57:00,VALID,916.906,VALID,0,VALID,100,VALID,0.0849042,VALID,19.3055,VALID,124,VALID,0.25744,
2006-01-14, 01:58:00,VALID,916.914,VALID,0,VALID,100,VALID,0.0679233,VALID,19.2925,VALID,123,VALID,0.228609,
2006-01-14, 01:59:00,VALID,916.91,VALID,0,VALID,100,VALID,0.0169808,VALID,19.2828,VALID,122,VALID,0.597656,
2006-01-14, 02:00:00,VALID,916.917,VALID,0,VALID,100,VALID,0.101885,VALID,19.2826,VALID,89,VALID,0.610054,
2006-01-14, 02:01:00,VALID,916.926,VALID,0,VALID,100,VALID,0.0509425,VALID,19.2759,VALID,95,VALID,0.739648,
2006-01-14, 02:02:00,VALID,916.944,VALID,0,VALID,100,VALID,0.0679233,VALID,19.2729,VALID,90,VALID,0.554501,
2006-01-14, 02:03:00,VALID,916.966,VALID,0,VALID,100,VALID,0.0509425,VALID,19.2861,VALID,90,VALID,0.406064,
2006-01-14, 02:04:00,VALID,916.966,VALID,0,VALID,100,VALID,0.0679233,VALID,19.2796,VALID,92,VALID,0.396949,
2006-01-14, 02:05:00,VALID,916.963,VALID,0,VALID,100,VALID,0.101885,VALID,19.2891,VALID,114,VALID,0.466087,
2006-01-14, 02:06:00,VALID,916.966,VALID,0,VALID,100,VALID,0.169808,VALID,19.2749,VALID,115,VALID,0.523065,
2006-01-14, 02:07:00,VALID,916.956,VALID,0,VALID,100,VALID,0.169808,VALID,19.2811,VALID,115,VALID,0.502232,
2006-01-14, 02:08:00,VALID,916.96,VALID,0,VALID,100,VALID,0.169808,VALID,19.2946,VALID,111,VALID,0.475,
2006-01-14, 02:09:00,VALID,916.937,VALID,0,VALID,100,VALID,0.169808,VALID,19.2946,VALID,109,VALID,0.283296,
2006-01-14, 02:10:00,VALID,916.929,VALID,0,VALID,100,VALID,0.169808,VALID,19.2779,VALID,109,VALID,0.0194404,
2006-01-14, 02:11:00,VALID,916.927,VALID,0,VALID,100,VALID,0.169808,VALID,19.2613,VALID,109,VALID,0,
2006-01-14, 02:12:00,VALID,916.914,VALID,0,VALID,100,VALID,0.118866,VALID,19.2493,VALID,109,VALID,0,
2006-01-14, 02:13:00,VALID,916.916,VALID,0,VALID,100,VALID,0.186789,VALID,19.22,VALID,109,VALID,0.0488281,
2006-01-14, 02:14:00,VALID,916.907,VALID,0,VALID,100,VALID,0.152827,VALID,19.1941,VALID,109,VALID,0.202567,
2006-01-14, 02:15:00,VALID,916.916,VALID,0,VALID,100,VALID,0.186789,VALID,19.1712,VALID,109,VALID,0.0132631,
2006-01-14, 02:16:00,VALID,916.921,VALID,0,VALID,100,VALID,0.220751,VALID,19.1387,VALID,109,VALID,0.247582,
2006-01-14, 02:17:00,VALID,916.92,VALID,0,VALID,100,VALID,0.20377,VALID,19.1125,VALID,109,VALID,0.134673,
2006-01-14, 02:18:00,VALID,916.935,VALID,0,VALID,100,VALID,0.169808,VALID,19.0874,VALID,109,VALID,0.0770597,
2006-01-14, 02:19:00,VALID,916.942,VALID,0,VALID,100,VALID,0.0849042,VALID,19.0695,VALID,109,VALID,0.220508,
2006-01-14, 02:20:00,VALID,916.955,VALID,0,VALID,100,VALID,0.101885,VALID,19.0366,VALID,61,VALID,0.479651,
2006-01-14, 02:21:00,VALID,916.962,VALID,0,VALID,100,VALID,0.169808,VALID,19.0163,VALID,351,VALID,0.77326,
2006-01-14, 02:22:00,VALID,916.967,VALID,0,VALID,100,VALID,0.169808,VALID,19.0066,VALID,351,VALID,0.761285,
2006-01-14, 02:23:00,VALID,916.955,VALID,0,VALID,100,VALID,0.169808,VALID,19.0006,VALID,350,VALID,0.857515,
2006-01-14, 02:24:00,VALID,916.958,VALID,0,VALID,100,VALID,0.169808,VALID,18.981,VALID,350,VALID,0.658203,
2006-01-14, 02:25:00,VALID,916.965,VALID,0,VALID,100,VALID,0.152827,VALID,18.9939,VALID,350,VALID,0.346094,
2006-01-14, 02:26:00,VALID,916.97,VALID,0,VALID,100,VALID,0.20377,VALID,18.9773,VALID,350,VALID,0.830983,
2006-01-14, 02:27:00,VALID,916.956,VALID,0,VALID,100,VALID,0.220751,VALID,18.9937,VALID,340,VALID,0.601385,
2006-01-14, 02:28:00,VALID,916.956,VALID,0,VALID,100,VALID,0.20377,VALID,19.0006,VALID,328,VALID,0.269345,
2006-01-14, 02:29:00,VALID,916.952,VALID,0,VALID,100,VALID,0.186789,VALID,18.9937,VALID,328,VALID,0.00729167,
2006-01-14, 02:30:00,VALID,916.951,VALID,0,VALID,100,VALID,0.186789,VALID,19.0168,VALID,328,VALID,0.0932049,
2006-01-14, 02:31:00,VALID,916.952,VALID,0,VALID,100,VALID,0.20377,VALID,19.0228,VALID,328,VALID,0.36814,
2006-01-14, 02:32:00,VALID,916.947,VALID,0,VALID,100,VALID,0.186789,VALID,19.0491,VALID,328,VALID,0.574491,
2006-01-14, 02:33:00,VALID,916.953,VALID,0,VALID,100,VALID,0.169808,VALID,19.0422,VALID,332,VALID,0.405297,
2006-01-14, 02:34:00,VALID,916.954,VALID,0,VALID,100,VALID,0.20377,VALID,19.0168,VALID,338,VALID,0.386905,
2006-01-14, 02:35:00,VALID,916.961,VALID,0,VALID,100,VALID,0.152827,VALID,19.0043,VALID,342,VALID,0.145313,
2006-01-14, 02:36:00,VALID,916.963,VALID,0,VALID,100,VALID,0.0339617,VALID,18.9923,VALID,3,VALID,0.524009,
2006-01-14, 02:37:00,VALID,916.958,VALID,0,VALID,100,VALID,0.0679233,VALID,18.9856,VALID,348,VALID,0.394259,
2006-01-14, 02:38:00,VALID,916.959,VALID,0,VALID,100,VALID,0.0509425,VALID,18.9824,VALID,348,VALID,0.0859375,
2006-01-14, 02:39:00,VALID,916.963,VALID,0,VALID,100,VALID,0.0849042,VALID,18.9665,VALID,348,VALID,0,
2006-01-14, 02:40:00,VALID,916.961,VALID,0,VALID,100,VALID,0.0849042,VALID,18.9461,VALID,348,VALID,0,
2006-01-14, 02:41:00,VALID,916.961,VALID,0,VALID,100,VALID,0.0679233,VALID,18.9533,VALID,348,VALID,0,
2006-01-14, 02:42:00,VALID,916.952,VALID,0,VALID,100,VALID,0.0679233,VALID,18.9464,VALID,348,VALID,0,
2006-01-14, 02:43:00,VALID,916.943,VALID,0,VALID,100,VALID,0.0849042,VALID,18.9401,VALID,348,VALID,0,
2006-01-14, 02:44:00,VALID,916.937,VALID,0,VALID,100,VALID,0.101885,VALID,18.9464,VALID,348,VALID,0,
2006-01-14, 02:45:00,VALID,916.929,VALID,0,VALID,100,VALID,0.0849042,VALID,18.9431,VALID,348,VALID,0,
2006-01-14, 02:46:00,VALID,916.931,VALID,0,VALID,100,VALID,0.0679233,VALID,18.9367,VALID,348,VALID,0,
2006-01-14, 02:47:00,VALID,916.925,VALID,0,VALID,100,VALID,0.0849042,VALID,18.9439,VALID,348,VALID,0,
2006-01-14, 02:48:00,VALID,916.907,VALID,0,VALID,100,VALID,0.0509425,VALID,18.921,VALID,348,VALID,0.0528274,
2006-01-14, 02:49:00,VALID,916.904,VALID,0,VALID,100,VALID,0.0509425,VALID,18.9081,VALID,348,VALID,0.206321,
2006-01-14, 02:50:00,VALID,916.883,VALID,0,VALID,100,VALID,0.0509425,VALID,18.8824,VALID,348,VALID,0.126272,
2006-01-14, 02:51:00,VALID,916.881,VALID,0,VALID,100,VALID,0.0849042,VALID,18.863,VALID,8,VALID,0.379542,
2006-01-14, 02:52:00,VALID,916.859,VALID,0,VALID,100,VALID,0.0679233,VALID,18.8339,VALID,46,VALID,0.300967,
2006-01-14, 02:53:00,VALID,916.839,VALID,0,VALID,100,VALID,0.0169808,VALID,18.8175,VALID,51,VALID,0.472202,
2006-01-14, 02:54:00,VALID,916.816,VALID,0,VALID,100,VALID,0.0679233,VALID,18.8111,VALID,55,VALID,0.396034,
2006-01-14, 02:55:00,VALID,916.797,VALID,0,VALID,100,VALID,0.0679233,VALID,18.785,VALID,55,VALID,0.107558,
2006-01-14, 02:56:00,VALID,916.774,VALID,0,VALID,100,VALID,0.0339617,VALID,18.7753,VALID,55,VALID,0.066907,
2006-01-14, 02:57:00,VALID,916.76,VALID,0,VALID,100,VALID,0.0509425,VALID,18.7526,VALID,55,VALID,0.116319,
2006-01-14, 02:58:00,VALID,916.731,VALID,0,VALID,100,VALID,0.0169808,VALID,18.7432,VALID,63,VALID,0.449929,
2006-01-14, 02:59:00,VALID,916.704,VALID,0,VALID,100,VALID,0.0509425,VALID,18.7531,VALID,79,VALID,0.583576,
2006-01-14, 03:00:00,VALID,916.688,VALID,0,VALID,100,VALID,0.0169808,VALID,18.7499,VALID,123,VALID,0.592152,
2006-01-14, 03:01:00,VALID,916.663,VALID,0,VALID,100,VALID,0.0169808,VALID,18.7474,VALID,138,VALID,0.640067,
2006-01-14, 03:02:00,VALID,916.656,VALID,0,VALID,100,VALID,0,VALID,18.7469,VALID,138,VALID,0.717115,
2006-01-14, 03:03:00,VALID,916.654,VALID,0,VALID,100,VALID,0,VALID,18.7496,VALID,138,VALID,0.516578,
2006-01-14, 03:04:00,VALID,916.649,VALID,0,VALID,100,VALID,0,VALID,18.7596,VALID,138,VALID,0.469151,
2006-01-14, 03:05:00,VALID,916.651,VALID,0,VALID,100,VALID,0.0169808,VALID,18.7589,VALID,138,VALID,0.433594,
2006-01-14, 03:06:00,VALID,916.666,VALID,0,VALID,100,VALID,0.0169808,VALID,18.7824,VALID,138,VALID,0.359375,
2006-01-14, 03:07:00,VALID,916.664,VALID,0,VALID,100,VALID,0,VALID,18.7984,VALID,154,VALID,0.712798,
2006-01-14, 03:08:00,VALID,916.664,VALID,0,VALID,100,VALID,0,VALID,18.8339,VALID,159,VALID,0.535866,
2006-01-14, 03:09:00,VALID,916.657,VALID,0,VALID,100,VALID,0,VALID,18.8561,VALID,159,VALID,0.137005,
2006-01-14, 03:10:00,VALID,916.653,VALID,0,VALID,100,VALID,0.0169808,VALID,18.8626,VALID,159,VALID,0.113281,
2006-01-14, 03:11:00,VALID,916.631,VALID,0,VALID,100,VALID,-0.0169808,VALID,18.8298,VALID,159,VALID,0.230655,
2006-01-14, 03:12:00,VALID,916.623,VALID,0,VALID,100,VALID,0.0339617,VALID,18.8143,VALID,159,VALID,0.454013,
2006-01-14, 03:13:00,VALID,916.618,VALID,0,VALID,100,VALID,-0.0169808,VALID,18.8051,VALID,159,VALID,0.440549,
2006-01-14, 03:14:00,VALID,916.608,VALID,0,VALID,100,VALID,0,VALID,18.7852,VALID,159,VALID,0.383594,
2006-01-14, 03:15:00,VALID,916.605,VALID,0,VALID,100,VALID,-0.0339617,VALID,18.7892,VALID,159,VALID,0.334449,
2006-01-14, 03:16:00,VALID,916.619,VALID,0,VALID,100,VALID,0,VALID,18.7723,VALID,159,VALID,0.491319,
2006-01-14, 03:17:00,VALID,916.622,VALID,0,VALID,100,VALID,-0.0169808,VALID,18.7919,VALID,159,VALID,0.397949,
2006-01-14, 03:18:00,VALID,916.645,VALID,0,VALID,100,VALID,0,VALID,18.8051,VALID,159,VALID,0.374653,
2006-01-14, 03:19:00,VALID,916.652,VALID,0,VALID,100,VALID,0,VALID,18.7917,VALID,159,VALID,0.323171,
2006-01-14, 03:20:00,VALID,916.648,VALID,0,VALID,100,VALID,0,VALID,18.7785,VALID,159,VALID,0.21274,
2006-01-14, 03:21:00,VALID,916.659,VALID,0,VALID,100,VALID,-0.0169808,VALID,18.7884,VALID,159,VALID,0.31321,
2006-01-14, 03:22:00,VALID,916.676,VALID,0,VALID,100,VALID,0.0169808,VALID,18.7725,VALID,159,VALID,0.443182,
2006-01-14, 03:23:00,VALID,916.667,VALID,0,VALID,100,VALID,0.0169808,VALID,18.7303,VALID,159,VALID,0.417791,
2006-01-14, 03:24:00,VALID,916.677,VALID,0,VALID,100,VALID,0.0169808,VALID,18.7561,VALID,159,VALID,0.513247,
2006-01-14, 03:25:00,VALID,916.667,VALID,0,VALID,100,VALID,0,VALID,18.7827,VALID,159,VALID,0.456395,
2006-01-14, 03:26:00,VALID,916.661,VALID,0,VALID,100,VALID,-0.0339617,VALID,18.7887,VALID,159,VALID,0.406944,
2006-01-14, 03:27:00,VALID,916.652,VALID,0,VALID,100,VALID,-0.0169808,VALID,18.8208,VALID,156,VALID,0.488186,
2006-01-14, 03:28:00,VALID,916.658,VALID,0,VALID,100,VALID,-0.0339617,VALID,18.8441,VALID,116,VALID,0.670387,
2006-01-14, 03:29:00,VALID,916.637,VALID,0,VALID,100,VALID,-0.0169808,VALID,18.8499,VALID,112,VALID,0.655878,
2006-01-14, 03:30:00,VALID,916.617,VALID,0,VALID,100,VALID,-0.0169808,VALID,18.863,VALID,112,VALID,0.664444,
2006-01-14, 03:31:00,VALID,916.608,VALID,0,VALID,100,VALID,-0.0169808,VALID,18.866,VALID,112,VALID,0.603849,
2006-01-14, 03:32:00,VALID,916.578,VALID,0,VALID,100,VALID,0,VALID,18.8633,VALID,112,VALID,0.34355,
2006-01-14, 03:33:00,VALID,916.556,VALID,0,VALID,100,VALID,-0.0169808,VALID,18.8409,VALID,112,VALID,0.299733,
2006-01-14, 03:34:00,VALID,916.53,VALID,0,VALID,100,VALID,-0.0169808,VALID,18.8046,VALID,112,VALID,0.216146,
2006-01-14, 03:35:00,VALID,916.487,VALID,0,VALID,100,VALID,0.0679233,VALID,18.778,VALID,112,VALID,0.415737,
2006-01-14, 03:36:00,VALID,916.462,VALID,0,VALID,100,VALID,0.101885,VALID,18.742,VALID,112,VALID,0.307173,
2006-01-14, 03:37:00,VALID,916.436,VALID,0,VALID,100,VALID,0.0849042,VALID,18.7291,VALID,112,VALID,0.192472,
2006-01-14, 03:38:00,VALID,916.413,VALID,0,VALID,100,VALID,0.0849042,VALID,18.7224,VALID,112,VALID,0.119318,
2006-01-14, 03:39:00,VALID,916.403,VALID,0,VALID,100,VALID,0.101885,VALID,18.7256,VALID,112,VALID,0.00399709,
2006-01-14, 03:40:00,VALID,916.389,VALID,0,VALID,100,VALID,0.101885,VALID,18.7226,VALID,112,VALID,0.0321801,